Regional Weather Roundup
Issued by NWS

Home | Current Version | Previous Version | Text Only | Print | Product List | Glossary On
Versions: 1 2 3 4 5 6 7 8 9 10 11 12 13 14 15 16 17 18 19 20 21 22 23 24 25 26 27 28 29 30 31 32 33 34 35 36 37 38 39 40 41 42 43 44 45 46 47 48 49
834
ASUS44 KJAN 291403
RWRMS

MISSISSIPPI HOURLY WEATHER ROUNDUP
NATIONAL WEATHER SERVICE JACKSON MS
900 AM CDT WED OCT 29 2014

NOTE: "FAIR: INDICATES FEW OR NO CLOUDS BELOW 12,000 FEET WITH NO
SIGNIFICANT WEATHER AND/OR OBSTRUCTIONS TO VISIBILITY.

MSZ001>002-007>008-010>013-018>021-025>028-034>036-291500-
NORTHWEST MISSISSIPPI

CITY           SKY/WX    TMP DP  RH WIND       PRES   REMARKS
CLARKSDALE     FAIR      55  54  94 N7        30.21R
CLEVELAND      FAIR      56  53  92 N10       30.19R
GREENWOOD      MOSUNNY   56  53  90 N8        30.16R
GREENVILLE     MOSUNNY   59  53  80 N13       30.17R
GRENADA        CLOUDY    55  52  88 MISG        N/A
OLIVE BRANCH   PTSUNNY   48  48 100 N5        30.20R FOG
OXFORD         FAIR      50  48  93 N6        30.20R
TUNICA         MOSUNNY   54  52  94 NE5       30.21R
$$

MSZ003>006-009-014>017-022>024-029>033-037>039-291500-
NORTHEAST MISSISSIPPI

CITY           SKY/WX    TMP DP  RH WIND       PRES   REMARKS
COLUMBUS AFB   CLOUDY    57  56  97 N9        30.13R
CORINTH        FAIR      54  50  87 N6        30.17R
GOLDN TRIANGLE CLOUDY    57  52  82 N9        30.12R
STARKVILLE     CLOUDY    55  54  94 NW3       30.14R
TUPELO         MOSUNNY   55  50  83 NE13      30.16R
$$

MSZ040-058-291500-
CENTRAL MISSISSIPPI

CITY           SKY/WX    TMP DP  RH WIND       PRES   REMARKS
JACKSON INTL   CLOUDY    68  65  90 N9        30.11R
JACKSON HAWKNS CLOUDY    65  62  90 N7        30.12R
MERIDIAN KEY   MOSUNNY   67  65  93 CALM      30.09S
MERIDIAN NAS   CLOUDY    69  65  86 NW6       30.10R
RAYMOND        CLOUDY    64  59  82 NW7       30.12R
VICKSBURG      PTSUNNY   62  59  90 N9        30.13R
$$

MSZ059>079-291500-
SOUTH MISSISSIPPI

CITY           SKY/WX    TMP DP  RH WIND       PRES   REMARKS
BROOKHAVEN     PTSUNNY   70  68  94 W3        30.11R FOG
COLUMBIA         N/A     68  68 100 MISG      30.09R FOG
HATTIESBURG    PTSUNNY   71  68  90 W5        30.10R
MCCOMB         CLOUDY    68  66  93 NW3       30.11R FOG
NATCHEZ        CLOUDY    66  64  94 N8        30.12R
PINE BELT      PTSUNNY   70  66  88 SW5       30.11R
$$

MSZ080>082-291500-
COASTAL MISSISSIPPI

CITY           SKY/WX    TMP DP  RH WIND       PRES   REMARKS
BILOXI         MOSUNNY   70  70 100 CALM      30.10R
PASCAGOULA     PTSUNNY   71  68  90 CALM      30.10R
GULFPORT       SUNNY     69  67  93 NW6       30.09R
$$



USA.gov is the U.S. government's official web portal to all federal, state and local government web resources and services.